Location: Moscow
(55.7500°N, 37.5830°E)
Time: 11:59:23
(UTC+03:00)

Vanguard 3 - Pass Details

Date: 01 December 2021
Orbit: 508 x 3260 km, 33.3° (Epoch: 19 January)

Event Time Altitude Azimuth Distance (km) Brightness Sun altitude
Rises 04:34:23 0° 214° (SW) 7,207 - -32.5°
Exits shadow 04:36:52 - 210° (SSW) 6,798 11.5 -32.1°
Reaches altitude 10° 04:40:47 10° 203° (SSW) 6,173 11.3 -31.6°
Maximum altitude 04:53:56 24° 160° (SSE) 4,652 11.0 -29.7°
Drops below altitude 10° 05:04:36 10° 115° (ESE) 4,952 11.9 -28.2°
Sets 05:08:55 0° 103° (ESE) 5,548 12.6 -27.6°
